Tracking 19283 objects as of 17-Nov-2018
HD Live streaming from Space Station
objects crossing your sky now

SCOUT X-4 DEB

Track SCOUT X-4 DEB now!
10-day predictions


NORAD ID: 2088
Int'l Code: 1965-093D
Perigee: 658.5 km
Apogee: 779.9 km
Inclination: 59.7 °
Period: 99.0 minutes
Semi major axis: 7090 km
RCS: 0.0298 m2 (small)
Launch date: November 19, 1965
Source: United States (US)
Launch site: WALLOPS ISLAND (WLPIS)

Note: This is SATELLITE DEBRIS
aabbcc
Your satellite tracking list
Your tracking list is empty




NASA's NSSDC Master Catalog

Two Line Element Set (TLE):
1  2088U 65093D   18320.60379785 +.00000008 +00000-0 +39151-4 0  9991
2  2088 059.7185 113.6480 0085675 356.8145 003.2342 14.54170105750454
Source of the keplerian elements: AFSPC